GW5126 Weather Reports


time (UTC)temp
C
wind
direction
speed
KPH
gust
KPH
rain 1hr
cm
rain 24hr
cm
rain mn
cm
humidity
%
barometer
mb
20260508072805 2 334 0.0 0.0 0.00 0.00 0.00 93 1014.4
20260508072306 2 334 0.0 0.0 0.00 0.00 0.00 93 1014.8
20260508071759 2 334 0.0 0.0 0.00 0.00 0.00 92 1014.6
20260508071257 2 334 0.0 0.0 0.00 0.00 0.00 92 1014.8
20260508070754 2 334 0.0 0.0 0.00 0.00 0.00 92 1014.8
20260508070253 2 334 0.0 0.0 0.00 0.00 0.00 92 1014.7
20260508065750 2 334 0.0 0.0 0.00 0.00 0.00 92 1014.8
20260508065248 2 334 0.0 0.0 0.00 0.00 0.00 92 1014.8
20260508064745 2 334 0.0 0.0 0.00 0.00 0.00 92 1014.9
20260508064243 2 334 0.0 0.0 0.00 0.00 0.00 92 1014.9
20260508063740 2 334 0.0 0.0 0.00 0.00 0.00 92 1014.6
20260508063238 2 334 0.0 0.0 0.00 0.00 0.00 92 1014.9
20260508062735 2 334 0.0 0.0 0.00 0.00 0.00 92 1014.6
20260508062233 2 334 0.0 0.0 0.00 0.00 0.00 92 1014.9
20260508061729 2 334 0.0 0.0 0.00 0.00 0.00 92 1014.9
20260508061227 2 334 0.0 0.0 0.00 0.00 0.00 92 1014.8
20260508060723 2 334 0.0 0.0 0.00 0.00 0.00 92 1015.0
20260508060221 2 334 0.0 0.0 0.00 0.00 0.00 91 1014.9
20260508055716 3 334 0.0 0.0 0.00 0.00 0.00 91 1014.6
20260508055213 3 334 0.0 0.0 0.00 0.00 0.00 91 1015.0
20260508054710 3 334 0.0 0.0 0.00 0.00 0.00 91 1015.1
20260508054208 3 334 0.0 0.0 0.00 0.00 0.00 91 1015.2
20260508053704 3 334 0.0 0.0 0.00 0.00 0.00 91 1015.2
20260508053202 3 334 0.0 0.0 0.00 0.00 0.00 91 1014.9
20260508052659 3 334 0.0 0.0 0.00 0.00 0.00 91 1015.1
20260508052156 3 334 0.0 0.0 0.00 0.00 0.00 91 1015.1
20260508051652 3 334 0.0 0.0 0.00 0.00 0.00 91 1015.1
20260508051148 3 334 0.0 0.0 0.00 0.00 0.00 90 1014.9
20260508050644 3 334 0.0 0.0 0.00 0.00 0.00 90 1015.2
20260508050142 3 334 0.0 0.0 0.00 0.00 0.00 90 1015.2
20260508045637 3 334 0.0 0.0 0.00 0.00 0.00 90 1015.0
20260508045135 3 334 0.0 0.0 0.00 0.00 0.00 90 1014.9
20260508044632 3 334 0.0 0.0 0.00 0.00 0.00 90 1014.8
20260508044128 3 334 0.0 0.0 0.00 0.00 0.00 90 1015.0
20260508043625 3 334 0.0 0.0 0.00 0.00 0.00 89 1015.0
20260508043123 3 334 0.0 0.0 0.00 0.00 0.00 89 1014.9
20260508042619 3 334 0.0 0.0 0.00 0.00 0.00 89 1015.1
20260508042117 4 334 0.0 0.0 0.00 0.00 0.00 89 1014.9
20260508041612 3 334 0.0 0.0 0.00 0.00 0.00 89 1014.9
20260508041109 4 334 0.0 0.0 0.00 0.00 0.00 89 1014.8
20260508040606 4 334 0.0 0.0 0.00 0.00 0.00 88 1014.7
20260508040104 4 334 0.0 0.0 0.00 0.00 0.00 88 1014.6
20260508035600 4 334 0.0 0.0 0.00 0.00 0.00 87 1014.6
20260508035058 4 334 0.0 0.0 0.00 0.00 0.00 87 1014.5
20260508034554 5 334 0.0 0.0 0.00 0.00 0.00 87 1014.8
20260508034052 5 334 0.0 0.0 0.00 0.00 0.00 87 1014.6
20260508033549 5 334 0.0 0.0 0.00 0.00 0.00 86 1014.6
20260508033048 5 334 0.0 0.0 0.00 0.00 0.00 86 1014.5
20260508032543 5 334 0.0 0.0 0.00 0.00 0.00 85 1014.5
20260508032041 5 334 0.0 0.0 0.00 0.00 0.00 85 1014.5
20260508031538 5 334 0.0 0.0 0.00 0.00 0.00 85 1014.6
20260508031034 5 334 0.0 0.0 0.00 0.00 0.00 84 1014.7
20260508030531 5 334 0.0 0.0 0.00 0.00 0.00 84 1014.9
20260508030029 5 334 0.0 0.0 0.00 0.00 0.00 83 1014.7
20260508025524 5 334 0.0 0.0 0.00 0.00 0.00 83 1014.4
20260508025022 5 334 0.0 0.0 0.00 0.00 0.00 83 1014.4
20260508024518 6 334 0.0 0.0 0.00 0.00 0.00 82 1014.6
20260508024015 6 334 0.0 0.0 0.00 0.00 0.00 80 1014.4
20260508023511 6 334 0.0 0.0 0.00 0.00 0.00 79 1014.6
20260508023009 6 334 0.0 0.0 0.00 0.00 0.00 79 1014.2
20260508022504 6 334 0.0 0.0 0.00 0.00 0.00 78 1014.5
20260508022001 6 334 0.0 0.0 0.00 0.00 0.00 78 1014.4
20260508021457 6 334 0.0 0.0 0.00 0.00 0.00 78 1014.3
20260508020953 6 334 0.0 0.0 0.00 0.00 0.00 76 1014.1
20260508020451 7 334 0.0 0.0 0.00 0.00 0.00 75 1014.1
20260508015948 7 334 0.0 0.0 0.00 0.00 0.00 74 1014.0
20260508015446 7 334 0.0 0.0 0.00 0.00 0.00 75 1014.0
20260508014942 7 334 0.0 0.0 0.00 0.00 0.00 73 1013.9
20260508014439 7 334 0.0 0.0 0.00 0.00 0.00 72 1013.9
20260508013935 8 334 0.0 0.0 0.00 0.00 0.00 72 1013.8
20260508013431 8 334 0.0 0.0 0.00 0.00 0.00 71 1013.7
20260508012929 8 334 0.0 0.0 0.00 0.00 0.00 71 1013.7
20260508012425 8 334 0.0 0.0 0.00 0.00 0.00 68 1013.8
20260508011923 9 333 0.0 0.0 0.00 0.00 0.00 66 1013.7
20260508011421 9 335 1.6 3.2 0.00 0.00 0.00 64 1013.6
20260508010918 10 334 1.6 3.2 0.00 0.00 0.00 63 1013.4
20260508010415 10 325 1.6 3.2 0.00 0.00 0.00 61 1013.4
20260508005912 10 328 1.6 1.6 0.00 0.00 0.00 59 1013.3
20260508005409 11 263 1.6 1.6 0.00 0.00 0.00 55 1013.3
20260508004905 11 245 0.0 0.0 0.00 0.00 0.00 55 1013.3
20260508004401 12 246 1.6 1.6 0.00 0.00 0.00 49 1013.2
20260508003858 12 250 0.0 3.2 0.00 0.00 0.00 48 1013.1
20260508003355 12 254 0.0 0.0 0.00 0.00 0.00 48 1013.1
20260508002852 12 349 0.0 3.2 0.00 0.00 0.00 47 1013.1
20260508002349 13 335 0.0 6.4 0.00 0.00 0.00 48 1012.8
20260508001845 13 275 3.2 4.8 0.00 0.00 0.00 46 1013.0
20260508001341 13 355 1.6 3.2 0.00 0.00 0.00 44 1012.8
20260508000838 13 265 0.0 1.6 0.00 0.00 0.00 44 1012.8
20260508000335 13 272 6.4 6.4 0.00 0.00 0.00 42 1012.7
20260507235831 13 103 0.0 1.6 0.00 0.00 0.00 42 1012.4
20260507235328 13 199 0.0 1.6 0.00 0.00 0.00 40 1012.4
20260507234825 14 164 4.8 4.8 0.00 0.00 0.00 39 1012.3
20260507234322 14 113 0.0 3.2 0.00 0.00 0.00 41 1012.5
20260507233818 14 21 0.0 6.4 0.00 0.00 0.00 38 1012.3
20260507233316 14 193 3.2 4.8 0.00 0.00 0.00 38 1012.3
20260507232814 15 138 4.8 6.4 0.00 0.00 0.00 36 1012.1
20260507232310 15 279 6.4 11.3 0.00 0.00 0.00 35 1012.1
20260507231807 15 18 4.8 4.8 0.00 0.00 0.00 37 1012.2
20260507231304 15 26 1.6 3.2 0.00 0.00 0.00 36 1012.0
20260507230800 15 241 0.0 4.8 0.00 0.00 0.00 35 1011.9
20260507230258 15 110 1.6 6.4 0.00 0.00 0.00 36 1011.9
20260507225757 15 2 1.6 11.3 0.00 0.00 0.00 37 1011.9
20260507225254 15 95 0.0 6.4 0.00 0.00 0.00 35 1011.8
20260507224750 15 99 1.6 6.4 0.00 0.00 0.00 37 1011.8
20260507224247 15 81 1.6 3.2 0.00 0.00 0.00 36 1011.7
20260507223743 16 293 6.4 11.3 0.00 0.00 0.00 35 1011.7
20260507223239 16 250 4.8 6.4 0.00 0.00 0.00 34 1011.6
20260507222737 16 200 1.6 4.8 0.00 0.00 0.00 36 1011.6
20260507222233 16 228 4.8 6.4 0.00 0.00 0.00 34 1011.7
20260507221730 17 38 1.6 4.8 0.00 0.00 0.00 33 1011.5
20260507221226 17 302 1.6 6.4 0.00 0.00 0.00 36 1011.8
20260507220723 17 138 6.4 11.3 0.00 0.00 0.00 33 1011.4
20260507220221 17 220 3.2 6.4 0.00 0.00 0.00 33 1011.8
20260507215716 17 252 3.2 12.9 0.00 0.00 0.00 35 1011.4
20260507215214 17 213 4.8 11.3 0.00 0.00 0.00 34 1011.1
20260507214712 17 215 4.8 6.4 0.00 0.00 0.00 33 1011.1
20260507214208 17 164 8.0 17.7 0.00 0.00 0.00 34 1011.1
20260507213704 17 42 8.0 11.3 0.00 0.00 0.00 34 1011.1
20260507213201 17 281 3.2 4.8 0.00 0.00 0.00 34 1011.2
20260507212657 17 73 1.6 6.4 0.00 0.00 0.00 38 1011.2
20260507212154 17 53 1.6 3.2 0.00 0.00 0.00 38 1010.9
20260507211651 17 325 6.4 11.3 0.00 0.00 0.00 39 1010.7
20260507211146 18 215 3.2 11.3 0.00 0.00 0.00 34 1010.8
20260507210644 18 12 3.2 12.9 0.00 0.00 0.00 34 1010.7
20260507210140 17 312 6.4 9.7 0.00 0.00 0.00 35 1010.9
20260507205637 17 58 1.6 6.4 0.00 0.00 0.00 37 1010.8
20260507205134 18 284 3.2 3.2 0.00 0.00 0.00 35 1010.8
20260507204630 17 310 1.6 11.3 0.00 0.00 0.00 40 1010.6
20260507204128 17 144 1.6 9.7 0.00 0.00 0.00 36 1010.5
20260507203626 17 169 6.4 9.7 0.00 0.00 0.00 36 1010.6
20260507203123 16 240 3.2 3.2 0.00 0.00 0.00 37 1010.8
20260507202618 16 280 6.4 9.7 0.00 0.00 0.00 39 1010.6
20260507202115 16 319 6.4 9.7 0.00 0.00 0.00 36 1010.6
20260507201610 16 353 0.0 4.8 0.00 0.00 0.00 39 1010.8
20260507201107 17 98 6.4 11.3 0.00 0.00 0.00 42 1010.5
20260507200602 17 154 3.2 6.4 0.00 0.00 0.00 41 1010.6
20260507200059 17 34 1.6 6.4 0.00 0.00 0.00 36 1010.7
20260507195557 17 77 0.0 4.8 0.00 0.00 0.00 37 1010.7
20260507195054 17 274 3.2 6.4 0.00 0.00 0.00 38 1010.7
20260507194549 17 120 6.4 11.3 0.00 0.00 0.00 39 1010.7
20260507194045 17 275 6.4 17.7 0.00 0.00 0.00 39 1010.8
20260507193543 16 12 0.0 4.8 0.00 0.00 0.00 40 1011.0
20260507193040 16 78 3.2 6.4 0.00 0.00 0.00 38 1011.3
20260507192536 17 256 3.2 12.9 0.00 0.00 0.00 36 1011.4
20260507192033 17 130 6.4 14.5 0.00 0.00 0.00 39 1011.6
20260507191528 17 350 9.7 11.3 0.00 0.00 0.00 40 1011.5
20260507191026 16 166 3.2 6.4 0.00 0.00 0.00 39 1011.8
20260507190523 16 287 1.6 9.7 0.00 0.00 0.00 41 1011.6
20260507190022 16 58 6.4 12.9 0.00 0.00 0.00 38 1011.6
20260507185520 16 116 1.6 6.4 0.00 0.00 0.00 39 1011.7
20260507185016 16 77 6.4 12.9 0.00 0.00 0.00 39 1011.7
20260507184514 16 311 4.8 16.1 0.00 0.00 0.00 40 1011.7
20260507184012 17 232 3.2 6.4 0.00 0.00 0.00 36 1011.7
20260507183507 17 127 0.0 4.8 0.00 0.00 0.00 41 1011.5
20260507183005 16 24 4.8 14.5 0.00 0.00 0.00 41 1011.6
20260507182500 16 38 3.2 9.7 0.00 0.00 0.00 41 1011.8
20260507181957 17 26 6.4 11.3 0.00 0.00 0.00 39 1011.5
20260507181453 16 199 4.8 9.7 0.00 0.00 0.00 43 1011.6
20260507180950 16 59 4.8 6.4 0.00 0.00 0.00 41 1011.7
20260507180447 16 34 1.6 9.7 0.00 0.00 0.00 41 1011.6
20260507175943 16 0 4.8 4.8 0.00 0.00 0.00 38 1011.8
20260507175440 16 209 4.8 6.4 0.00 0.00 0.00 40 1011.8
20260507174937 16 295 1.6 4.8 0.00 0.00 0.00 44 1011.8
20260507174434 16 140 0.0 6.4 0.00 0.00 0.00 41 1011.9
20260507173932 16 67 4.8 11.3 0.00 0.00 0.00 42 1011.8
20260507173429 16 121 3.2 3.2 0.00 0.00 0.00 45 1011.9
20260507172925 16 154 3.2 9.7 0.00 0.00 0.00 45 1012.0
20260507172422 16 108 1.6 4.8 0.00 0.00 0.00 43 1011.9
20260507171918 16 273 1.6 6.4 0.00 0.00 0.00 45 1012.2
20260507171415 17 273 6.4 9.7 0.00 0.00 0.00 43 1012.3
20260507170912 16 90 1.6 3.2 0.00 0.00 0.00 45 1012.3
20260507170408 16 25 3.2 6.4 0.00 0.00 0.00 44 1012.4
20260507165904 16 150 3.2 9.7 0.00 0.00 0.00 44 1012.5
20260507165400 16 200 4.8 6.4 0.00 0.00 0.00 47 1012.6
20260507164856 16 226 3.2 6.4 0.00 0.00 0.00 46 1012.6
20260507164354 16 229 6.4 11.3 0.00 0.00 0.00 45 1012.5
20260507163851 16 181 3.2 11.3 0.00 0.00 0.00 48 1012.8
20260507163348 16 331 4.8 6.4 0.00 0.00 0.00 45 1012.8
20260507162845 16 286 1.6 4.8 0.00 0.00 0.00 47 1012.5
20260507162340 15 232 8.0 12.9 0.00 0.00 0.00 47 1012.6
20260507161837 15 272 4.8 11.3 0.00 0.00 0.00 48 1012.8
20260507161334 15 207 3.2 6.4 0.00 0.00 0.00 46 1012.7
20260507160831 15 224 4.8 6.4 0.00 0.00 0.00 50 1012.6
20260507160326 13 309 0.0 6.4 0.00 0.00 0.00 51 1012.8
20260507155823 13 95 3.2 4.8 0.00 0.00 0.00 54 1012.9
20260507155319 14 300 6.4 11.3 0.00 0.00 0.00 49 1012.8
20260507154815 15 302 1.6 9.7 0.00 0.00 0.00 47 1012.9
20260507154313 15 59 3.2 3.2 0.00 0.00 0.00 50 1012.9
20260507153809 14 217 1.6 3.2 0.00 0.00 0.00 48 1012.8
20260507153306 14 57 3.2 4.8 0.00 0.00 0.00 53 1013.0
20260507152802 15 34 8.0 9.7 0.00 0.00 0.00 50 1013.0
20260507152259 15 25 4.8 4.8 0.00 0.00 0.00 52 1012.8
20260507151754 15 207 1.6 6.4 0.00 0.00 0.00 49 1013.1
20260507151251 14 309 0.0 4.8 0.00 0.00 0.00 49 1013.1
20260507150748 13 104 1.6 11.3 0.00 0.00 0.00 49 1013.2
20260507150245 13 181 6.4 14.5 0.00 0.00 0.00 52 1013.1
20260507145741 14 153 4.8 4.8 0.00 0.00 0.00 57 1013.3
20260507145238 15 159 1.6 3.2 0.00 0.00 0.00 55 1013.2
20260507144735 14 337 3.2 12.9 0.00 0.00 0.00 53 1013.3
20260507144232 14 86 4.8 9.7 0.00 0.00 0.00 55 1013.4
20260507143729 14 187 0.0 4.8 0.00 0.00 0.00 52 1013.7
20260507143226 15 190 4.8 6.4 0.00 0.00 0.00 56 1013.7
20260507142722 15 201 4.8 9.7 0.00 0.00 0.00 55 1013.7
20260507142219 13 92 3.2 6.4 0.00 0.00 0.00 54 1013.8
20260507141715 13 93 1.6 4.8 0.00 0.00 0.00 55 1013.7
20260507141213 13 312 4.8 11.3 0.00 0.00 0.00 56 1013.9
20260507140708 13 261 11.3 17.7 0.00 0.00 0.00 58 1013.9
20260507140206 13 136 6.4 9.7 0.00 0.00 0.00 55 1014.0
20260507135703 13 185 6.4 9.7 0.00 0.00 0.00 54 1014.1
20260507135200 13 102 3.2 3.2 0.00 0.00 0.00 51 1014.2
20260507134657 13 189 3.2 4.8 0.00 0.00 0.00 49 1014.3
20260507134152 14 261 1.6 3.2 0.00 0.00 0.00 50 1014.2
20260507133648 13 173 1.6 4.8 0.00 0.00 0.00 57 1014.3
20260507133146 13 270 0.0 3.2 0.00 0.00 0.00 65 1014.3
20260507132643 12 154 0.0 4.8 0.00 0.00 0.00 70 1014.2
20260507132139 12 184 3.2 4.8 0.00 0.00 0.00 71 1014.4
20260507131636 12 182 4.8 4.8 0.00 0.00 0.00 74 1014.4
20260507131134 11 132 1.6 3.2 0.00 0.00 0.00 74 1014.6
20260507130630 11 194 1.6 3.2 0.00 0.00 0.00 78 1014.4
20260507130128 11 160 1.6 4.8 0.00 0.00 0.00 78 1014.4
20260507125627 11 165 1.6 3.2 0.00 0.00 0.00 82 1014.4
20260507125124 10 112 0.0 3.2 0.00 0.00 0.00 88 1014.6
20260507124620 10 202 0.0 1.6 0.00 0.00 0.00 93 1014.6
20260507124118 8 159 0.0 1.6 0.00 0.00 0.00 93 1014.2
20260507123616 7 140 0.0 1.6 0.00 0.00 0.00 93 1014.3
20260507123113 7 133 1.6 3.2 0.00 0.00 0.00 93 1014.5
20260507122608 7 147 3.2 3.2 0.00 0.00 0.00 93 1014.4
20260507122104 7 94 1.6 1.6 0.00 0.00 0.00 93 1014.3
20260507121600 6 228 0.0 1.6 0.00 0.00 0.00 93 1014.4
20260507121056 6 246 0.0 0.0 0.00 0.00 0.00 93 1014.4
20260507120552 6 247 1.6 1.6 0.00 0.00 0.00 93 1014.4
20260507120049 6 114 0.0 1.6 0.00 0.00 0.00 94 1014.2
20260507115545 6 130 0.0 1.6 0.00 0.00 0.00 93 1014.5
20260507115041 6 135 0.0 1.6 0.00 0.00 0.00 93 1014.5
20260507114537 5 134 0.0 0.0 0.00 0.00 0.00 93 1014.5
20260507114035 5 347 1.6 1.6 0.00 0.00 0.00 94 1014.3
20260507113532 5 347 0.0 0.0 0.00 0.00 0.00 93 1014.3
20260507113029 5 353 0.0 1.6 0.00 0.00 0.00 93 1014.3
20260507112526 5 12 0.0 0.0 0.00 0.00 0.00 93 1014.5
20260507112023 5 8 0.0 0.0 0.00 0.00 0.00 93 1014.3
20260507111520 5 10 0.0 1.6 0.00 0.00 0.00 93 1014.2
20260507111016 5 11 1.6 1.6 0.00 0.00 0.00 93 1014.1
20260507110513 5 11 0.0 0.0 0.00 0.00 0.00 93 1014.2
20260507110010 5 11 0.0 0.0 0.00 0.00 0.00 93 1014.1
20260507105507 5 11 0.0 1.6 0.00 0.00 0.00 93 1014.0
20260507105003 5 12 0.0 0.0 0.00 0.00 0.00 93 1013.8
20260507104500 5 8 0.0 0.0 0.00 0.00 0.00 93 1013.8
20260507103956 5 8 1.6 1.6 0.00 0.00 0.00 93 1013.7
20260507103453 5 9 0.0 0.0 0.00 0.00 0.00 93 1013.7
20260507102949 5 6 0.0 1.6 0.00 0.00 0.00 93 1013.7
20260507102446 5 17 0.0 1.6 0.00 0.00 0.00 93 1013.6
20260507101942 5 19 0.0 1.6 0.00 0.00 0.00 93 1013.6
20260507101437 5 21 0.0 1.6 0.00 0.00 0.00 93 1013.7
20260507100934 5 21 0.0 3.2 0.00 0.00 0.00 93 1013.3
20260507100432 5 344 1.6 1.6 0.00 0.00 0.00 92 1013.7
20260507095930 5 344 0.0 1.6 0.00 0.00 0.00 92 1013.6
20260507095427 5 344 0.0 1.6 0.00 0.00 0.00 92 1013.4
20260507094924 5 343 0.0 0.0 0.00 0.00 0.00 92 1013.6
20260507094420 5 343 0.0 0.0 0.00 0.00 0.00 92 1013.4
20260507093917 5 343 0.0 0.0 0.00 0.00 0.00 92 1013.4
20260507093415 5 343 0.0 0.0 0.00 0.00 0.00 92 1013.4
20260507092913 6 343 0.0 1.6 0.00 0.00 0.00 92 1013.3
20260507092409 6 343 0.0 0.0 0.00 0.00 0.00 91 1013.6
20260507091906 6 343 0.0 0.0 0.00 0.00 0.00 91 1013.4
20260507091402 6 343 0.0 0.0 0.00 0.00 0.00 91 1013.1
20260507090858 6 343 0.0 0.0 0.00 0.00 0.00 91 1013.3
20260507090354 6 343 0.0 0.0 0.00 0.00 0.00 91 1013.1
20260507085851 6 343 0.0 1.6 0.00 0.00 0.00 91 1013.1
20260507085348 6 344 1.6 1.6 0.00 0.00 0.00 91 1013.3
20260507084845 6 344 1.6 3.2 0.00 0.00 0.00 91 1013.3
20260507084342 6 0 1.6 3.2 0.00 0.00 0.00 90 1013.6
20260507083839 7 1 0.0 0.0 0.00 0.00 0.00 90 1013.4
20260507083335 7 0 0.0 1.6 0.00 0.00 0.00 90 1013.4
20260507082832 7 0 1.6 1.6 0.00 0.00 0.00 90 1013.4
20260507082327 7 1 0.0 1.6 0.00 0.00 0.00 90 1013.6
20260507081825 7 321 0.0 1.6 0.00 0.00 0.00 89 1013.6
20260507081321 7 321 0.0 1.6 0.00 0.00 0.00 89 1013.6
20260507080817 7 321 0.0 0.0 0.00 0.00 0.00 89 1013.6
20260507080314 7 321 0.0 1.6 0.00 0.00 0.00 89 1013.6
20260507075809 8 321 0.0 1.6 0.00 0.00 0.00 88 1013.4
20260507075307 7 321 1.6 3.2 0.00 0.00 0.00 88 1013.3
20260507074802 7 14 0.0 1.6 0.00 0.00 0.00 88 1013.6
20260507074300 8 15 0.0 1.6 0.00 0.00 0.00 87 1013.2
20260507073757 8 355 1.6 1.6 0.00 0.00 0.00 87 1013.4